Regional Weather Roundup
Issued by NWS Portland, ME

Current Version | Previous Version | Text Only | Print | Product List | Glossary Off
Versions: 1 2 3 4 5 6 7 8 9 10 11 12 13 14 15 16 17 18 19 20 21 22 23 24 25 26 27 28 29 30 31 32 33 34 35 36 37 38 39 40 41 42 43 44 45 46 47 48 49 50
000 ASUS41 KGYX 171805 RWRGYX WEATHER ROUNDUP FOR MAINE AND NEW HAMPSHIRE NATIONAL WEATHER SERVICE GRAY ME 200 PM EDT TUE OCT 17 2017 MEZ002-005-006-010-012-015-018-020-021-024-026-027-029-171900- MAINE CITY SKY/WX TMP DP RH WIND PRES REMARKS PORTLAND MOSUNNY 55 27 34 SW9 30.21F 6HR MIN TEMP: 36; 6HR MAX TEMP: 55; SANFORD SUNNY 55 31 39 SW10 30.22F BAR HARBOR SUNNY 52 27 38 NW8 30.18F WISCASSET SUNNY 54 29 38 MISG 30.21F 6HR MIN TEMP: 33; 6HR MAX TEMP: 54; ROCKLAND SUNNY 52 31 44 SW9 30.18F FRYEBURG SUNNY 56 31 38 VRB6 30.18F 6HR MIN TEMP: 29; 6HR MAX TEMP: 56; LEWISTONAUBURN SUNNY 53 30 41 VRB5 30.19F AUGUSTA SUNNY 52 29 41 MISG 30.18F 6HR MIN TEMP: 37; 6HR MAX TEMP: 52; WATERVILLE SUNNY 52 31 44 W7 30.15F BANGOR MOSUNNY 53 28 38 NW8 30.17F 6HR MIN TEMP: 34; 6HR MAX TEMP: 53; GREENVILLE N/A 47 27 45 VRB6 30.09F 6HR MIN TEMP: 32; 6HR MAX TEMP: 49; MILLINOCKET SUNNY 50 30 46 MISG 30.13F 6HR MIN TEMP: 34; 6HR MAX TEMP: 50; HOULTON SUNNY 49 29 46 W8 30.10F 6HR MIN TEMP: 28; 6HR MAX TEMP: 49; PRESQUE ISLE PTSUNNY 48 29 47 W10G17 30.09F 6HR MIN TEMP: 33; 6HR MAX TEMP: 48; FRENCHVILLE MOSUNNY 42 28 57 SW10 30.05F 6HR MIN TEMP: 31; 6HR MAX TEMP: 44; CARIBOU MOSUNNY 49 29 46 VRB6 30.07F 6HR MIN TEMP: 33; 6HR MAX TEMP: 49; $$ NHZ002-005-008-009-011-012-014-171900- NEW HAMPSHIRE CITY SKY/WX TMP DP RH WIND PRES REMARKS PORTSMOUTH SUNNY 55 29 37 W8 30.21F ROCHESTER SUNNY 55 30 38 VRB3 30.21F 6HR MIN TEMP: 34; 6HR MAX TEMP: 55; NASHUA SUNNY 55 31 39 W6 30.24F MANCHESTER MOSUNNY 55 28 35 SW7 30.21F 6HR MIN TEMP: 39; 6HR MAX TEMP: 55; CONCORD SUNNY 55 29 36 VRB6 30.22F 6HR MIN TEMP: 30; 6HR MAX TEMP: 55; LACONIA SUNNY 53 29 39 S8 30.20F PLYMOUTH FAIR 55 26 32 CALM 30.18F BERLIN SUNNY 52 27 38 CALM 30.15F 6HR MIN TEMP: 28; 6HR MAX TEMP: 52; WHITEFIELD SUNNY 51 28 41 W5 30.17F 6HR MIN TEMP: 27; 6HR MAX TEMP: 52; JAFFREY SUNNY 53 28 38 W7 30.23F 6HR MIN TEMP: 30; 6HR MAX TEMP: 53; KEENE SUNNY 57 28 33 S5 30.24F LEBANON SUNNY 55 29 36 S7 30.19F 6HR MIN TEMP: 30; 6HR MAX TEMP: 55; MT WASHINGTON MOSUNNY 27 16 63 NW24G31 N/A WCI 12 6HR MIN TEMP: 19; 6HR MAX TEMP: 26; $$ VTZ005-007-008-171900- VERMONT CITY SKY/WX TMP DP RH WIND PRES REMARKS ST JOHNSBURY N/A 52 28 39 MISG 30.15F MONTPELIER CLOUDY 52 29 41 VRB3 30.20F BURLINGTON MOSUNNY 54 30 40 S14 30.17F $$ MAZ007-012-024-CTZ003-RIZ002-NYZ038-NYZ072-171900- SOUTHERN NEW ENGLAND AND NY CITY SKY/WX TMP DP RH WIND PRES REMARKS BOSTON MOSUNNY 56 29 35 NW5 30.25F WORCESTER SUNNY 51 24 34 VRB3 30.24F NANTUCKET SUNNY 54 37 52 N10G20 30.25F PROVIDENCE MOSUNNY 57 32 38 CALM 30.27F HARTFORD SUNNY 56 26 31 NW5 30.26F ALBANY SUNNY 53 29 39 S5 30.26F NEW YORK CITY SUNNY 58 29 33 CALM 30.29F $$ ANZ081-ANZ082-ANZ150-NHZ014-MEZ023>029-171900- COASTAL MARINE OBSERVATIONS STATION/POSITION TIME TEMP WIND PRES WAVE AIR SEA DIR/SP/G HT/PER (UTC) (F) (DEG/KT/KT) (MB) (FT/S) MOUNT DESERT ROC 1800 47 270/ 12/ 14 1022.6F MATINICUS ROCK 1700 46 280/ 12/ 14 1023.2F ISLE OF SHOALS 1700 48 200/ 6/ 7 1024.2F JEFFREYS LEDGE 1736 59 N/A 3/ 7 CASHES LEDGE BUO 1650 51 55 1024.2 4/ 6 GEORGES BANK BUO 1650 51 60 1020.5 8/ 8 $$ .............KEY.............. WCI - WIND CHILL TC - TEMPERATURE IN CELSIUS VSB - VISIBILITY IN MILES HX - HEAT INDEX FAIR- INDICATES FEW OR NO CLOUDS BELOW 12,000 FT, WITH NO SIGNIFICANT WEATHER AND/OR OBSTRUCTIONS TO VISIBILITY.

USA.gov is the U.S. government's official web portal to all federal, state and local government web resources and services.